Bangor, ME

7:33 AM EST on February 27, 2017 (GMT -0500)
Bangor International

Weather History for KBGR - September, 2014

Change the Weather History Date:

Thursday, September 18, 2014

  Actual Average Record
Temperature  
Mean Temperature 51 °F 58 °F  
Max Temperature 66 °F 69 °F 87 °F (1992)
Min Temperature 36 °F 47 °F 29 °F (1941)
Degree Days  
Heating Degree Days 14 7  
Month to date heating degree days 113 90  
Since 1 July heating degree days 134 153  
Cooling Degree Days 0 0  
Month to date cooling degree days 42 21  
Year to date cooling degree days 356 315  
Growing Degree Days 4 (Base 50)    
Moisture  
Dew Point 44 °F    
Average Humidity 70    
Maximum Humidity 100    
Minimum Humidity 39    
Precipitation  
Precipitation 0.00 in 0.13 in 3.61 in (1934)
Month to date precipitation 0.83 2.13  
Year to date precipitation 28.57 28.38  
Snow  
Snow 0.00 in 0.00 in 0.00 in (2002)
Month to date snowfall 0.0 0.0  
Since 1 July snowfall 0.0 0.0  
Since 1 September snowfall 0.0 0.0  
Snow Depth 0.00 in    
Sea Level Pressure  
Sea Level Pressure 29.95 in    
Wind  
Wind Speed 4 mph (West)    
Max Wind Speed 21 mph    
Max Gust Speed 26 mph    
Visibility 5 miles    
Events Fog    
T = Trace of Precipitation, MM = Missing Value Source: NWS Daily Summary

Daily Weather History Graph

Daily Weather History Graph

Search for Another Location

Airport or City:

Trip Planner

Search our weather history database for the weather conditions in past years. The results will help you decide how hot, cold, wet, or windy it might be!

Date:

Astronomy

Sep. 18, 2014 Rise Set
Actual Time 6:17 AM EDT 6:40 PM EDT
Civil Twilight 5:48 AM EDT 7:09 PM EDT
Nautical Twilight 5:13 AM EDT 7:44 PM EDT
Astronomical Twilight 4:38 AM EDT 8:19 PM EDT
Moon 12:56 AM EDT (9/18) 3:38 PM EDT (9/18)
Length of Visible Light 13h 21m
Length of Day
12h 22m
Waning Crescent, 26% of the Moon is Illuminated
Sep 18
Waning Crescent
Sep 24
New
Oct 1
First Quarter
Oct 8
Full
Oct 15
Last Quarter

Hourly Weather History & Observations

Time (EDT) Temp. Windchill Dew Point Humidity Pressure Visibility Wind Dir Wind Speed Gust Speed Precip Events Conditions
12:53 AM 46.9 °F - 45.0 °F 93% 29.92 in 10.0 mi Calm Calm - N/A   Clear
12:55 AM 46.9 °F - 45.0 °F 93% 29.92 in 10.0 mi Calm Calm - N/A   Clear
1:53 AM 48.0 °F - 46.0 °F 93% 29.91 in 10.0 mi Calm Calm - N/A Fog Patches of Fog
2:34 AM 48.9 °F - 46.9 °F 93% 29.90 in 5.0 mi SSW 6.9 mph - N/A   Mostly Cloudy
2:53 AM 50.0 °F - 48.9 °F 96% 29.89 in 1.5 mi South 6.9 mph - N/A   Mostly Cloudy
3:06 AM 50.0 °F - 48.9 °F 96% 29.89 in 0.8 mi SSW 3.5 mph - N/A   Overcast
3:09 AM 50.0 °F - 48.2 °F 94% 29.89 in 1.0 mi SSW 3.5 mph - N/A   Overcast
3:25 AM 50.0 °F - 48.9 °F 96% 29.89 in 0.2 mi South 3.5 mph - N/A Fog Fog
3:53 AM 48.9 °F - 48.0 °F 97% 29.88 in 0.2 mi SSW 3.5 mph - N/A Fog Fog
4:06 AM 48.9 °F - 48.0 °F 97% 29.89 in 0.5 mi SSW 3.5 mph - N/A Fog Fog
4:25 AM 46.9 °F - 46.0 °F 97% 29.89 in 0.5 mi Calm Calm - N/A   Mist
4:37 AM 46.0 °F - 44.1 °F 93% 29.89 in 1.5 mi Calm Calm - N/A   Scattered Clouds
4:53 AM 46.4 °F - 44.6 °F 93% 29.88 in 3.0 mi Calm Calm - N/A   Partly Cloudy
5:53 AM 46.9 °F - 45.0 °F 93% 29.89 in 4.0 mi Calm Calm - N/A Fog Patches of Fog
5:59 AM 46.9 °F - 45.0 °F 93% 29.90 in 1.0 mi West 4.6 mph - N/A   Overcast
6:07 AM 46.9 °F - 45.0 °F 93% 29.90 in 0.2 mi West 4.6 mph - N/A Fog Fog
6:30 AM 46.9 °F - 46.0 °F 97% 29.91 in 0.2 mi SSW 4.6 mph - N/A Fog Fog
6:53 AM 48.0 °F - 46.9 °F 96% 29.91 in 0.2 mi SSW 3.5 mph - N/A Fog Fog
7:27 AM 48.9 °F - 48.0 °F 97% 29.92 in 0.1 mi WNW 4.6 mph - N/A Fog Fog
7:51 AM 48.2 °F - 46.4 °F 93% 29.93 in 0.2 mi SW 3.5 mph - N/A Fog Fog
7:53 AM 48.9 °F - 48.0 °F 97% 29.93 in 0.2 mi SW 3.5 mph - N/A Fog Fog
8:04 AM 50.0 °F - 48.0 °F 93% 29.93 in 0.2 mi NW 3.5 mph - N/A Fog Fog
8:10 AM 50.0 °F - 48.9 °F 96% 29.93 in 0.5 mi West 3.5 mph - N/A Fog Fog
8:14 AM 50.0 °F - 48.9 °F 96% 29.93 in 1.0 mi West 4.6 mph - N/A   Mostly Cloudy
8:25 AM 52.0 °F - 50.0 °F 93% 29.93 in 9.0 mi West 5.8 mph - N/A   Mostly Cloudy
8:53 AM 55.0 °F - 50.0 °F 83% 29.93 in 10.0 mi West 8.1 mph - N/A   Mostly Cloudy
9:53 AM 62.1 °F - 48.9 °F 62% 29.94 in 10.0 mi Variable 5.8 mph - N/A   Partly Cloudy
10:53 AM 64.9 °F - 48.0 °F 54% 29.94 in 9.0 mi NNW 10.4 mph - N/A   Scattered Clouds
11:53 AM 64.0 °F - 48.0 °F 56% 29.95 in 10.0 mi NNW 17.3 mph - N/A   Mostly Cloudy
12:53 PM 62.1 °F - 45.0 °F 53% 29.95 in 10.0 mi NW 13.8 mph 19.6 mph N/A   Mostly Cloudy
1:53 PM 63.0 °F - 42.1 °F 46% 29.94 in 10.0 mi WNW 9.2 mph - N/A   Mostly Cloudy
2:53 PM 64.9 °F - 39.9 °F 40% 29.95 in 10.0 mi WNW 13.8 mph - N/A   Mostly Cloudy
3:53 PM 64.9 °F - 39.0 °F 39% 29.96 in 10.0 mi NNW 16.1 mph 20.7 mph N/A   Mostly Cloudy
4:53 PM 62.1 °F - 37.9 °F 41% 29.97 in 10.0 mi North 13.8 mph - N/A   Scattered Clouds
5:53 PM 57.9 °F - 36.0 °F 44% 30.00 in 10.0 mi North 16.1 mph - N/A   Partly Cloudy
6:53 PM 53.1 °F - 35.1 °F 50% 30.04 in 10.0 mi NNW 13.8 mph - N/A   Partly Cloudy
7:53 PM 50.0 °F - 33.1 °F 52% 30.07 in 10.0 mi NNW 12.7 mph - N/A   Partly Cloudy
8:53 PM 48.0 °F - 32.0 °F 54% 30.10 in 10.0 mi NNW 11.5 mph - N/A   Clear
9:53 PM 45.0 °F 41.2 °F 30.9 °F 58% 30.13 in 10.0 mi NNW 6.9 mph - N/A   Partly Cloudy
10:53 PM 44.1 °F 42.5 °F 30.9 °F 60% 30.14 in 10.0 mi NW 3.5 mph - N/A   Clear
11:53 PM 39.0 °F - 30.9 °F 73% 30.16 in 10.0 mi Calm Calm - N/A   Clear